User: anonymous   Login
Location: Unspecified
(0.0000°N, 0.0000°E)
Time: 21:37:42
(UTC+00:00)
Language:

Tiros N - Orbit

View from above orbital plane
View from above orbital plane
View from above satellite
View from above satellite

Ground track
Ground track

The orbit data is extracted from the following two-line orbital elements,

1 11060U 78096A   18230.66916917  .00000001  00000-0  22212-4 0  9991
2 11060  98.8371 285.1467 0010425 193.3627 166.7274 14.18205331273577
Epoch (UTC): 18 August 2018 16:03:36
Eccentricity: 0.0010425
inclination: 98.8371°
perigee height: 824 km
apogee height: 839 km
right ascension of ascending node: 285.1467°
argument of perigee: 193.3627°
revolutions per day: 14.18205331
mean anomaly at epoch: 166.7274°
orbit number at epoch: 27357

The dashed part of the orbit path shows where the satellite is in the earth's shadow,  

DLR